Tracking 30703 objects as of 12-Jun-2025
HD Live streaming from Space Station
objects crossing your sky now

ONEWEB-0699

Track ONEWEB-0699 now!
10-day predictions
ONEWEB-0699 is classified as:


NORAD ID: 61605
Int'l Code: 2024-188M
Perigee: 1,227.2 km
Apogee: 1,230.5 km
Inclination: 87.9 °
Period: 109.9 minutes
Semi major axis: 7599 km
RCS: Unknown
Launch date: October 20, 2024
Source: United States (US)
Launch site: AIR FORCE WESTERN TEST RANGE (AFWTR)
Your satellite tracking list
Your tracking list is empty




NASA's NSSDC Master Catalog

Two Line Element Set (TLE):
1 61605U 24188M   25162.80527517 -.00000617  00000-0 -18053-2 0  9997
2 61605  87.8817 110.1091 0002199  92.5300 267.6079 13.10372372 34803
Source of the keplerian elements: AFSPC